www.pogodaiklimat.ru

Погода и климат >> Архив погоды >> Россия >> Чукотка >> Марково


АРХИВ ПОГОДЫ в Марково

Время (UTC), дата Ветер
(напр.,м/с)
 
Видим.   Явления Облачность Т
(С)
Тd
(С)
f
(%)
Тe
(С)
Тes
(С)
Комфортность P
(гПа)
Po
(гПа)
Тmin
(С)
Tmax
(С)
R
(мм)
R24
(мм)
S
(см)
03 12.09 С 6-12
{17}
50 км 10/6 600 м
[Cb cap Ac As]
+8.8 -0.7 51 +5 +6 1000.4 997.5
06 12.09 С 7-13
{15}
50 км 9/3 1000 м
[Sc Ac und]
+7.9 -0.2 57 +4 +4 1002.1 999.2 +9.0 0.0
09 12.09 С 5-11
{13}
20 км 10/0
[Ac As]
+6.2 -1.3 59 +2 +2 1003.9 1001.0
12 12.09 С 5
{11}
20 км 10/4 1000 м
[Sc Ac As]
+5.6 -2.8 55 +2 +2 1004.9 1002.0
15 12.09 С 5-10
{12}
20 км 10/4 1000 м
[Sc Ac As]
+5.1 +3.2 88 0 0 1005.9 1003.0
18 12.09 СЗ 5-11
{11}
50 км 9/4 1000 м
[Sc Ac trans Ci fib]
+4.3 -3.9 55 0 0 1007.3 1004.4 +4.3
21 12.09 С 6-11
{12}
50 км 6/0
[Ac trans Ci fib]
+5.8 -3.2 52 +2 +2 1008.6 1005.7 +3.5
00 13.09 С 5-10
{12}
50 км 9/4 1000 м
[Sc Ac trans Ci fib]
+7.8 -3.3 45 +5 +5 1009.4 1006.5
03 13.09 С 6-10
{11}
50 км 9/3 1000 м
[Sc Ac trans Ci fib]
+9.8 -3.6 39 +7 +7 1009.8 1006.9
06 13.09 С 4-10
{11}
50 км 9/0
[Ac trans Cc]
+8.0 -2.5 47 +5 +5 1010.9 1008.0 +9.9
09 13.09 С 2-4
{10}
20 км 9/3 1000 м
[Sc Ac trans Ci fib]
+5.3 -2.2 58 +3 +3 1012.7 1009.7
12 13.09 С 2
{5}
20 км 10/0
[Ac trans Ci fib]
+2.8 -2.4 69 0 0 1013.5 1010.5
15 13.09 С 2
{5}
20 км 10/0
[Ac trans Cc]
+2.8 -2.4 69 0 0 1014.0 1011.0
18 13.09 З 1
{4}
50 км 5/0
[Ac trans Ci fib]
-2.3 -3.9 89 -5 -5 1014.6 1011.6 -2.3
21 13.09 СЗ 1
{3}
50 км 4/0
[Ac trans Ci fib]
+3.4 -2.6 65 +2 +4 1015.1 1012.1 -2.4
00 14.09 СЗ 2
{6}
50 км 8/0
[Ac trans Ci fib]
+7.4 -2.7 49 +6 +9 1014.6 1011.7
03 14.09 В 1
{4}
50 км 3/0
[Ci fib]
+10.9 -1.9 41 +11 +15 1013.7 1010.8
06 14.09 В 1
{4}
50 км 3/0
[Ci fib]
+10.7 -0.9 44 +11 +11 1013.1 1010.2 +11.3
09 14.09 В 2
{4}
20 км 1/0
[Ci fib]
-1.0 -2.5 90 -5 -5 1014.0 1011.0
12 14.09 С 2
{3}
20 км 3/0
[Ci fib]
-2.2 -2.5 98 -6 -6 1014.2 1011.2
15 14.09 С 1
{3}
20 км 9/9 1000 м
[Sc Ci fib]
-0.2 -0.5 98 -2 -2 1013.9 1010.9
18 14.09 С 1
{3}
50 км 10/10 1000 м
[Sc]
+0.5 -0.3 94 -2 -2 1013.5 1010.5 -3.4
21 14.09 СЗ 1
{3}
50 км 10/10 1000 м
[Sc]
+3.0 +0.3 82 +2 +2 1013.6 1010.6
00 15.09 штиль 0
{2}
50 км 10/0
[Ac und]
+7.9 +2.1 67 +7 +9 1012.7 1009.8
03 15.09 Ю 2
{3}
50 км 8/0
[Ac trans Ci fib]
+12.0 +2.7 53 +11 +13 1010.9 1008.1
06 15.09 Ю 2
{4}
50 км 3/0
[Ac trans Ci fib]
+11.3 +2.9 56 +10 +11 1010.5 1007.6 +12.5
09 15.09 ЮВ 1
{3}
20 км ясно -0.8 -1.4 96 -3 -3 1011.2 1008.2
12 15.09 Ю 1
{2}
20 км ясно -3.2 -3.5 98 -6 -6 1011.8 1008.7
15 15.09 штиль 0
{1}
4000 м дымка ясно -5.3 -5.6 98 -6 -6 1012.3 1009.2
18 15.09 штиль 0
{1}
4000 м дымка 3/0
[Ac trans Ci fib]
-6.5 -7.0 96 -7 -7 1012.9 1009.8 -6.5
21 15.09 С 1
{1}
50 км 5/0
[Ac trans Cc]
+0.3 0.0 98 -2 -1 1013.5 1010.5
00 16.09 СВ 1
{3}
50 км 9/0
[Ac trans Ci fib]
+11.0 +4.1 62 +11 +14 1013.5 1010.6
03 16.09 С 1
{4}
50 км 9/3 1000 м
[Sc Ac trans Ci fib]
+12.5 +3.8 55 +13 +14 1013.4 1010.5
06 16.09 С 2
{3}
50 км 10/0
[Ac und]
+10.9 +4.5 65 +10 +10 1013.6 1010.7 +12.9
09 16.09 С 1
{3}
20 км 10/5 1000 м
[Sc Ac As]
+8.8 +5.0 77 +8 +8 1014.7 1011.8
12 16.09 С 1
{3}
20 км 10/6 1000 м
[Sc Ac As]
+7.5 +4.8 83 +7 +7 1015.6 1012.7
15 16.09 Ю 1
{3}
20 км 10/4 1000 м
[Sc Ac As]
+5.8 +4.9 94 +4 +4 1016.1 1013.1
18 16.09 СВ 1
{2}
50 км 10/3 1000 м
[Sc Ac trans]
+5.4 +4.7 95 +4 +4 1016.2 1013.2 +5.3
21 16.09 СВ 1
{3}
10 км слаб. дождь 10/6 300 м
[Frnb As op]
+6.5 +5.8 95 +5 +5 1016.6 1013.6
00 17.09 СВ 1
{4}
10 км слаб. дождь 10/0
[Ac As]
+6.7 +5.3 91 +6 +7 1017.3 1014.4
03 17.09 С 2
{5}
10 км слаб. дождь 10/8 300 м
[Frnb As op]
+7.1 +6.4 95 +5 +5 1016.8 1013.9
06 17.09 С 1
{4}
10 км слаб. дождь 10/0
[Ac As]
+7.6 +7.0 96 +7 +7 1016.3 1013.4 +7.8 1
09 17.09 СВ 2
{5}
20 км в посл. час дождь 10/0
[Ac und]
+6.0 +4.1 88 +4 +4 1016.8 1013.8
12 17.09 С 1
{5}
20 км {дождь} 9/0
[Ac trans Cs]
+3.0 +0.9 86 +1 +1 1016.9 1013.9
15 17.09 С 2
{4}
20 км 9/0
[Ac trans Ci fib]
+1.1 +0.3 94 -3 -3 1016.3 1013.3
18 17.09 С 1
{4}
50 км 9/0
[Ac trans Ci fib]
+0.8 +0.3 96 -1 -1 1015.7 1012.7 +0.5 0.8
21 17.09 С 1
{3}
50 км 10/6 600 м
[Cb cap As trans]
+3.1 +2.3 94 +1 +2 1015.4 1012.4
00 18.09 С 2
{4}
50 км {дождь} 10/5 600 м
[Cb cap Ac As]
+6.4 +3.3 81 +4 +5 1014.5 1011.5
03 18.09 СВ 2
{8}
50 км 8/4 1000 м
[Sc Ac trans Cc]
+9.0 +0.2 54 +8 +9 1012.7 1009.8
06 18.09 С 1
{7}
50 км 8/3 1000 м
[Sc Ac trans Cc]
+6.3 +0.7 67 +6 +6 1011.8 1008.9 +9.2 0.0
09 18.09 С 1
{2}
20 км 4/0
[Ac trans Ci fib]
-1.9 -2.5 96 -4 -4 1011.5 1008.5
12 18.09 С 1
{3}
20 км 10/10 1000 м
[Sc]
+0.8 +0.3 96 -1 -1 1010.9 1007.9
15 18.09 штиль 0
{2}
20 км 9/8 1000 м
[Sc Ac trans]
+1.2 +0.1 92 0 0 1010.2 1007.2
18 18.09 З 1
{2}
20 км в посл. час ливневой дождь 10/10 50 м
[Cb cap]
+1.6 +1.1 96 -0 -0 1009.9 1006.9 -2.5 0.0
21 18.09 С 3
{6}
50 км 9/1 1000 м
[Sc Ac trans Ci fib]
+4.0 0.0 75 0 +1 1010.7 1007.8
00 19.09 С 3
{7}
50 км 9/3 600 м
[Cu Sc Ac trans]
+5.8 -1.5 59 +3 +4 1011.1 1008.2

 

Местоположение метеостанции Марково (Чукотка, Россия): широта 64.68 долгота 170.40 высота над уровнем моря 26 м.

В архиве по умолчанию представлена погода в Марково за последнюю неделю. Архивные данные за месяц целиком и за предыдущие месяцы, начиная с января 2011 года, Вы можете получить, выбрав интересующий диапазон дат из раскрывающегося списка и нажав кнопку "Ввод!".


*Определитесь, кто Вы:
робот инопланетянин человек

Внимание! Время в таблицах - всемирное. Для получения местного времени необходимо прибавить поправку, которая равна 12 ч.

Смотрите также архив погоды в соседних городах и на ближайших метеорологических станциях:

Погода в Танюрере (Чукотка, Россия) (191 км)
Погода в Слаутном (Камчатский край, Россия) (208 км)
Погода в Эньмувееме (Чукотка, Россия) (231 км)
Погода в Верхне-Пенжино (Камчатский край, Россия) (302 км)
Погода в Канчалане (Чукотка, Россия) (302 км)
Погода в Илирнее (Чукотка, Россия) (307 км)
Погода в Каменском (Камчатский край, Россия) (321 км)
Погода в Анадыре (Чукотка, Россия) (337 км)
Погода в Анадыре АМС (Чукотка, Россия) (338 км)
Погода в Баимке (Чукотка, Россия) (351 км)

Пояснения к столбцам:

Ветер - указаны скорость ветра в м/с - средняя за 10 мин, порывы в срок и между сроками (в фигурных скобках) и направление, откуда дует ветер: С - северный, СВ - северо-восточный, В - восточный, ЮВ - юго-восточный, Ю - южный, ЮЗ - юго-западный, З - западный, СЗ - северо-западный.
Видимость - горизонтальная дальность видимости в метрах или километрах. При видимости от 1 до 10 км при отсутствии осадков обычно наблюдается дымка, при ухудшении видимости до 1 км и менее - туман. В сухую погоду видимость может ухудшаться дымом, пылью или мглою.
Явления - указаны атмосферные явления, наблюдавшиеся в срок или в последний час перед сроком; фигурными скобками обозначены явления, наблюдавшиеся между сроками (за 1-3 часа до срока); квадратными скобками обозначены град или гололедные отложения с указанием их диаметра в мм.
Облачность - указаны через наклонную черту общая и нижняя облачность в баллах и высота нижней границы облаков в метрах; квадратными скобками обозначены формы облаков: Ci - перистые, Cs - перисто-слоистые, Cc - перисто-кучевые, Ac - высококучевые, As - высокослоистые, Sc - слоисто-кучевые, Ns - слоисто-дождевые, Cu - кучевые, Cb - кучево-дождевые. Подробнее классификацию облаков см. в Атласе облаков (PDF).
T - Температура воздуха - температура, измеренная на высоте 2 м над землей.
Td - Температура точки росы - температура, при понижении до которой содержащийся в воздухе водяной пар достигнет насыщения.
f - Относительная влажность воздуха - влажноcть воздуха, измеренная на высоте 2 м над землей.
Te - Эффективная температура - температура, которую ощущает одетый по сезону человек в тени. Характеристика душности погоды. При расчете учитывается влияние влажности воздуха и скорости ветра на теплоощущения человека.
Tes - Эффективная температура на солнце - температура, которую ощущает человек, с поправкой на солнечный нагрев. Характеристика знойности погоды. Зависит от высоты солнца над горизонтом, облачности и скорости ветра. Ночью, в пасмурную погоду, а также при ветре 12 м/с и более поправка равна нулю.
P - Атмосферное давление - приведенное к уровню моря атмосферное давление.
Po - Атмосферное давление - измеренное на уровне метеостанции атмосферное давление.
Tmin - Минимальная температура - минимум температуры воздуха на высоте 2 м над землей.
Tmax - Максимальная температура - максимум температуры воздуха на высоте 2 м над землей.
R - Количество осадков - Количество выпавших осадков за период времени, мм. При наведении курсора мыши на число - период времени, за который выпало указанное количество осадков.
R24 - Количество осадков - Количество выпавших осадков за 24 часа, мм.
S - Снежный покров - Высота снежного покрова, см. При наведении курсора мыши на число - состояние снежного покрова и степень покрытия местности в баллах.